Time,TemperatureF,DewpointF,PressureIn,WindDirection,WindDirectionDegrees,WindSpeedMPH,WindSpeedGustMPH,Humidity,HourlyPrecipIn,Conditions,Clouds,dailyrainin,SolarRadiationWatts/m^2,SoftwareType,DateUTC
2013-02-16 00:02:00,48.2,35.0,30.10,NNE,22,0.0,0.0,60,0.00,CLR,OVC,0.00,0.0,WeatherDisplay:10.37,2013-02-16 08:02:00,
2013-02-16 00:07:00,48.0,35.2,30.10,East,90,0.0,0.0,61,0.00,CLR,OVC,0.00,0.0,WeatherDisplay:10.37,2013-02-16 08:07:00,
2013-02-16 00:12:00,47.8,35.0,30.10,NNE,22,0.0,0.0,61,0.00,CLR,OVC,0.00,0.0,WeatherDisplay:10.37,2013-02-16 08:12:00,
2013-02-16 00:17:00,47.8,35.0,30.10,SE,135,0.0,0.0,61,0.00,CLR,OVC,0.00,0.0,WeatherDisplay:10.37,2013-02-16 08:17:00,
2013-02-16 00:22:00,47.7,34.9,30.10,NE,45,0.0,0.0,61,0.00,CLR,OVC,0.00,0.0,WeatherDisplay:10.37,2013-02-16 08:22:00,
2013-02-16 00:27:00,47.3,34.9,30.10,NE,45,0.0,0.0,62,0.00,CLR,OVC,0.00,0.0,WeatherDisplay:10.37,2013-02-16 08:27:00,
2013-02-16 00:32:00,47.3,34.9,30.10,SE,135,0.0,0.0,62,0.00,CLR,OVC,0.00,0.0,WeatherDisplay:10.37,2013-02-16 08:32:00,
2013-02-16 00:37:00,47.3,34.9,30.10,NNE,22,0.0,0.0,62,0.00,CLR,OVC,0.00,0.0,WeatherDisplay:10.37,2013-02-16 08:37:00,
2013-02-16 00:42:00,47.1,34.8,30.10,NNE,22,0.0,0.0,62,0.00,CLR,OVC,0.00,0.0,WeatherDisplay:10.37,2013-02-16 08:42:00,
2013-02-16 00:47:00,47.1,35.2,30.09,ENE,68,0.0,0.0,63,0.00,CLR,OVC,0.00,0.0,WeatherDisplay:10.37,2013-02-16 08:47:00,
2013-02-16 00:52:00,46.9,35.0,30.09,NNE,22,1.2,1.2,63,0.00,CLR,OVC,0.00,0.0,WeatherDisplay:10.37,2013-02-16 08:52:00,
2013-02-16 00:57:00,46.8,34.8,30.09,ESE,112,0.0,0.2,63,0.00,CLR,OVC,0.00,0.0,WeatherDisplay:10.37,2013-02-16 08:57:00,
2013-02-16 01:02:00,46.8,34.8,30.09,North,0,0.0,0.1,63,0.00,CLR,OVC,0.00,0.0,WeatherDisplay:10.37,2013-02-16 09:02:00,
2013-02-16 01:07:00,46.6,35.0,30.10,NNE,22,0.0,0.0,64,0.00,CLR,OVC,0.00,0.0,WeatherDisplay:10.37,2013-02-16 09:07:00,
2013-02-16 01:12:00,46.6,34.7,30.10,NNE,22,0.0,0.0,63,0.00,CLR,OVC,0.00,0.0,WeatherDisplay:10.37,2013-02-16 09:12:00,
2013-02-16 01:17:00,46.4,34.5,30.10,NW,315,0.0,0.0,63,0.00,CLR,OVC,0.00,0.0,WeatherDisplay:10.37,2013-02-16 09:17:00,
2013-02-16 01:22:00,46.4,34.5,30.10,East,90,0.0,0.0,63,0.00,CLR,OVC,0.00,0.0,WeatherDisplay:10.37,2013-02-16 09:22:00,
2013-02-16 01:27:00,46.0,34.5,30.10,East,90,0.0,0.0,64,0.00,CLR,OVC,0.00,0.0,WeatherDisplay:10.37,2013-02-16 09:27:00,
2013-02-16 01:32:00,46.0,34.5,30.10,ENE,68,0.0,0.0,64,0.00,CLR,OVC,0.00,0.0,WeatherDisplay:10.37,2013-02-16 09:32:00,
2013-02-16 01:37:00,46.0,34.5,30.10,NNE,22,0.0,0.0,64,0.00,CLR,OVC,0.00,0.0,WeatherDisplay:10.37,2013-02-16 09:37:00,
2013-02-16 01:42:00,45.9,34.4,30.10,NE,45,0.0,0.0,64,0.00,CLR,OVC,0.00,0.0,WeatherDisplay:10.37,2013-02-16 09:42:00,
2013-02-16 01:47:00,45.7,34.6,30.10,North,0,0.0,0.0,65,0.00,CLR,OVC,0.00,0.0,WeatherDisplay:10.37,2013-02-16 09:47:00,
2013-02-16 01:52:00,45.7,34.6,30.10,NE,45,0.0,0.0,65,0.00,CLR,OVC,0.00,0.0,WeatherDisplay:10.37,2013-02-16 09:52:00,
2013-02-16 01:57:00,45.5,34.4,30.10,ENE,68,0.0,0.0,65,0.00,CLR,OVC,0.00,0.0,WeatherDisplay:10.37,2013-02-16 09:57:00,
2013-02-16 02:02:00,45.5,34.4,30.10,ESE,112,0.0,0.0,65,0.00,CLR,OVC,0.00,0.0,WeatherDisplay:10.37,2013-02-16 10:02:00,
2013-02-16 02:07:00,45.5,34.4,30.11,West,270,0.0,0.0,65,0.00,CLR,OVC,0.00,0.0,WeatherDisplay:10.37,2013-02-16 10:07:00,
2013-02-16 02:12:00,45.5,34.4,30.11,WNW,292,0.0,0.0,65,0.00,CLR,OVC,0.00,0.0,WeatherDisplay:10.37,2013-02-16 10:12:00,
2013-02-16 02:17:00,45.3,34.2,30.11,North,0,0.0,0.0,65,0.00,CLR,OVC,0.00,0.0,WeatherDisplay:10.37,2013-02-16 10:17:00,
2013-02-16 02:22:00,45.1,34.1,30.11,East,90,0.0,0.0,65,0.00,CLR,OVC,0.00,0.0,WeatherDisplay:10.37,2013-02-16 10:22:00,
2013-02-16 02:27:00,45.1,34.1,30.09,SE,135,0.0,0.0,65,0.00,CLR,OVC,0.00,0.0,WeatherDisplay:10.37,2013-02-16 10:27:00,
2013-02-16 02:32:00,45.0,33.9,30.09,NNE,22,0.0,0.0,65,0.00,CLR,OVC,0.00,0.0,WeatherDisplay:10.37,2013-02-16 10:32:00,
2013-02-16 02:37:00,45.0,34.3,30.09,ENE,68,0.0,0.0,66,0.00,CLR,OVC,0.00,0.0,WeatherDisplay:10.37,2013-02-16 10:37:00,
2013-02-16 02:42:00,45.0,34.3,30.09,SE,135,0.0,0.0,66,0.00,CLR,OVC,0.00,0.0,WeatherDisplay:10.37,2013-02-16 10:42:00,
2013-02-16 02:47:00,44.8,34.1,30.08,NNE,22,0.0,0.0,66,0.00,CLR,OVC,0.00,0.0,WeatherDisplay:10.37,2013-02-16 10:47:00,
2013-02-16 02:52:00,44.8,34.1,30.08,SE,135,0.0,0.0,66,0.00,CLR,OVC,0.00,0.0,WeatherDisplay:10.37,2013-02-16 10:52:00,
2013-02-16 02:57:00,44.6,33.9,30.08,ENE,68,0.0,0.0,66,0.00,CLR,OVC,0.00,0.0,WeatherDisplay:10.37,2013-02-16 10:57:00,
2013-02-16 03:02:00,44.4,33.8,30.08,SSE,158,0.0,0.0,66,0.00,CLR,OVC,0.00,0.0,WeatherDisplay:10.37,2013-02-16 11:02:00,
2013-02-16 03:07:00,44.4,34.1,30.08,SE,135,0.0,0.0,67,0.00,CLR,OVC,0.00,0.0,WeatherDisplay:10.37,2013-02-16 11:07:00,
2013-02-16 03:12:00,44.4,34.1,30.08,West,270,0.0,0.0,67,0.00,CLR,OVC,0.00,0.0,WeatherDisplay:10.37,2013-02-16 11:12:00,
2013-02-16 03:17:00,44.2,34.0,30.08,NW,315,0.0,0.0,67,0.00,CLR,OVC,0.00,0.0,WeatherDisplay:10.37,2013-02-16 11:17:00,
2013-02-16 03:22:00,44.2,34.0,30.08,NW,315,0.0,0.0,67,0.00,CLR,OVC,0.00,0.0,WeatherDisplay:10.37,2013-02-16 11:22:00,
2013-02-16 03:27:00,44.2,34.0,30.08,West,270,0.0,0.0,67,0.00,CLR,OVC,0.00,0.0,WeatherDisplay:10.37,2013-02-16 11:27:00,
2013-02-16 03:32:00,44.1,33.8,30.08,NW,315,0.0,0.0,67,0.00,CLR,OVC,0.00,0.0,WeatherDisplay:10.37,2013-02-16 11:32:00,
2013-02-16 03:37:00,44.1,33.8,30.08,NW,315,0.0,0.0,67,0.00,CLR,OVC,0.00,0.0,WeatherDisplay:10.37,2013-02-16 11:37:00,
2013-02-16 03:42:00,43.9,33.6,30.08,WNW,292,0.0,0.0,67,0.00,CLR,OVC,0.00,0.0,WeatherDisplay:10.37,2013-02-16 11:42:00,
2013-02-16 03:47:00,43.7,33.5,30.08,NW,315,0.0,0.0,67,0.00,CLR,OVC,0.00,0.0,WeatherDisplay:10.37,2013-02-16 11:47:00,
2013-02-16 03:52:00,43.7,33.5,30.08,NW,315,0.0,0.0,67,0.00,CLR,OVC,0.00,0.0,WeatherDisplay:10.37,2013-02-16 11:52:00,
2013-02-16 03:57:00,43.7,33.5,30.08,WNW,292,0.0,0.0,67,0.00,CLR,OVC,0.00,0.0,WeatherDisplay:10.37,2013-02-16 11:57:00,
2013-02-16 04:02:00,43.5,33.3,30.08,NW,315,0.0,0.0,67,0.00,CLR,OVC,0.00,0.0,WeatherDisplay:10.37,2013-02-16 12:02:00,
2013-02-16 04:07:00,43.5,33.7,30.07,West,270,0.0,0.0,68,0.00,CLR,OVC,0.00,0.0,WeatherDisplay:10.37,2013-02-16 12:07:00,
2013-02-16 04:12:00,43.5,33.7,30.07,WNW,292,0.0,0.0,68,0.00,CLR,OVC,0.00,0.0,WeatherDisplay:10.37,2013-02-16 12:12:00,
2013-02-16 04:17:00,43.3,33.5,30.07,SW,225,0.0,0.0,68,0.00,CLR,OVC,0.00,0.0,WeatherDisplay:10.37,2013-02-16 12:17:00,
2013-02-16 04:22:00,43.3,33.5,30.07,WNW,292,0.0,0.0,68,0.00,CLR,OVC,0.00,0.0,WeatherDisplay:10.37,2013-02-16 12:22:00,
2013-02-16 04:27:00,43.2,33.7,30.07,West,270,0.0,0.0,69,0.00,CLR,OVC,0.00,0.0,WeatherDisplay:10.37,2013-02-16 12:27:00,
2013-02-16 04:32:00,43.2,33.7,30.07,West,270,0.0,0.0,69,0.00,CLR,OVC,0.00,0.0,WeatherDisplay:10.37,2013-02-16 12:32:00,
2013-02-16 04:37:00,43.2,33.7,30.07,NNE,22,0.0,0.0,69,0.00,CLR,OVC,0.00,0.0,WeatherDisplay:10.37,2013-02-16 12:37:00,
2013-02-16 04:42:00,43.2,33.7,30.07,WSW,248,0.0,0.0,69,0.00,CLR,OVC,0.00,0.0,WeatherDisplay:10.37,2013-02-16 12:42:00,
2013-02-16 04:47:00,43.2,33.7,30.07,NNW,338,0.0,0.0,69,0.00,CLR,OVC,0.00,0.0,WeatherDisplay:10.37,2013-02-16 12:47:00,
2013-02-16 04:52:00,43.2,33.7,30.07,West,270,0.0,0.0,69,0.00,CLR,OVC,0.00,0.0,WeatherDisplay:10.37,2013-02-16 12:52:00,
2013-02-16 04:57:00,43.2,34.0,30.07,ENE,68,0.0,0.0,70,0.00,CLR,OVC,0.00,0.0,WeatherDisplay:10.37,2013-02-16 12:57:00,
2013-02-16 05:02:00,43.2,34.0,30.07,NNW,338,0.0,0.0,70,0.00,CLR,OVC,0.00,0.0,WeatherDisplay:10.37,2013-02-16 13:02:00,
2013-02-16 05:07:00,43.0,33.9,30.06,NW,315,0.0,0.0,70,0.00,CLR,OVC,0.00,0.0,WeatherDisplay:10.37,2013-02-16 13:07:00,
2013-02-16 05:12:00,43.0,33.9,30.06,WNW,292,0.0,0.0,70,0.00,CLR,OVC,0.00,0.0,WeatherDisplay:10.37,2013-02-16 13:12:00,
2013-02-16 05:17:00,43.0,33.9,30.06,NW,315,0.0,0.1,70,0.00,CLR,OVC,0.00,0.0,WeatherDisplay:10.37,2013-02-16 13:17:00,
2013-02-16 05:22:00,43.0,33.9,30.06,WNW,292,1.3,1.3,70,0.00,CLR,OVC,0.00,0.0,WeatherDisplay:10.37,2013-02-16 13:22:00,
2013-02-16 05:27:00,43.2,34.4,30.06,West,270,2.3,2.3,71,0.00,CLR,OVC,0.00,0.0,WeatherDisplay:10.37,2013-02-16 13:27:00,
2013-02-16 05:32:00,43.3,34.9,30.06,NW,315,1.6,1.6,72,0.00,CLR,OVC,0.00,0.0,WeatherDisplay:10.37,2013-02-16 13:32:00,
2013-02-16 05:37:00,43.3,35.3,30.06,NW,315,1.2,1.2,73,0.00,CLR,OVC,0.00,0.0,WeatherDisplay:10.37,2013-02-16 13:37:00,
2013-02-16 05:42:00,43.3,35.6,30.06,NW,315,1.2,1.2,74,0.00,CLR,OVC,0.00,0.0,WeatherDisplay:10.37,2013-02-16 13:42:00,
2013-02-16 05:47:00,43.3,35.9,30.06,NW,315,1.2,1.2,75,0.00,CLR,OVC,0.00,0.0,WeatherDisplay:10.37,2013-02-16 13:47:00,
2013-02-16 05:52:00,43.5,36.1,30.06,West,270,2.3,2.3,75,0.00,CLR,OVC,0.00,0.0,WeatherDisplay:10.37,2013-02-16 13:52:00,
2013-02-16 05:57:00,43.5,36.5,30.06,West,270,2.3,2.3,76,0.00,CLR,OVC,0.00,0.0,WeatherDisplay:10.37,2013-02-16 13:57:00,
2013-02-16 06:02:00,43.5,36.8,30.06,NW,315,2.6,2.6,77,0.00,CLR,OVC,0.00,0.0,WeatherDisplay:10.37,2013-02-16 14:02:00,
2013-02-16 06:07:00,43.5,37.1,30.06,NW,315,2.3,2.3,78,0.00,CLR,OVC,0.00,0.0,WeatherDisplay:10.37,2013-02-16 14:07:00,
2013-02-16 06:12:00,43.5,37.4,30.06,WNW,292,2.3,2.3,79,0.00,CLR,OVC,0.00,0.0,WeatherDisplay:10.37,2013-02-16 14:12:00,
2013-02-16 06:17:00,43.7,37.6,30.06,NW,315,2.3,2.3,79,0.00,CLR,OVC,0.00,0.0,WeatherDisplay:10.37,2013-02-16 14:17:00,
2013-02-16 06:22:00,43.7,37.6,30.06,NNW,338,2.3,2.3,79,0.00,CLR,OVC,0.00,0.0,WeatherDisplay:10.37,2013-02-16 14:22:00,
2013-02-16 06:27:00,43.5,37.4,30.06,NW,315,2.3,2.3,79,0.00,CLR,OVC,0.00,0.0,WeatherDisplay:10.37,2013-02-16 14:27:00,
2013-02-16 06:33:00,43.5,37.4,30.06,NNE,22,1.2,1.2,79,0.00,CLR,OVC,0.00,0.0,WeatherDisplay:10.37,2013-02-16 14:33:00,
2013-02-16 06:37:00,43.7,37.6,30.06,NW,315,0.0,0.3,79,0.00,CLR,OVC,0.00,0.0,WeatherDisplay:10.37,2013-02-16 14:37:00,
2013-02-16 06:43:00,43.5,37.1,30.06,SE,135,0.0,0.1,78,0.00,CLR,OVC,0.00,0.0,WeatherDisplay:10.37,2013-02-16 14:43:00,
2013-02-16 06:48:00,43.5,37.1,30.06,North,0,0.0,0.0,78,0.00,CLR,OVC,0.00,0.0,WeatherDisplay:10.37,2013-02-16 14:48:00,
2013-02-16 06:53:00,43.5,37.1,30.06,NE,45,0.0,0.0,78,0.00,CLR,OVC,0.00,0.0,WeatherDisplay:10.37,2013-02-16 14:53:00,
2013-02-16 06:58:00,43.5,37.1,30.06,NW,315,0.0,0.1,78,0.00,CLR,OVC,0.00,0.0,WeatherDisplay:10.37,2013-02-16 14:58:00,
2013-02-16 07:03:00,43.5,37.1,30.06,NW,315,0.0,0.1,78,0.00,CLR,OVC,0.00,0.0,WeatherDisplay:10.37,2013-02-16 15:03:00,
2013-02-16 07:08:00,43.5,37.1,30.06,NW,315,2.0,2.0,78,0.00,CLR,OVC,0.00,0.0,WeatherDisplay:10.37,2013-02-16 15:08:00,
2013-02-16 07:13:00,43.5,37.1,30.06,NW,315,2.3,2.3,78,0.00,CLR,OVC,0.00,0.0,WeatherDisplay:10.37,2013-02-16 15:13:00,
2013-02-16 07:18:00,43.7,37.6,30.06,North,0,2.3,2.3,79,0.00,CLR,OVC,0.00,0.0,WeatherDisplay:10.37,2013-02-16 15:18:00,
2013-02-16 07:23:00,43.9,37.8,30.06,WNW,292,2.3,2.3,79,0.00,CLR,OVC,0.00,0.0,WeatherDisplay:10.37,2013-02-16 15:23:00,
2013-02-16 07:28:00,44.1,38.3,30.06,West,270,2.0,2.0,80,0.00,CLR,OVC,0.00,0.0,WeatherDisplay:10.37,2013-02-16 15:28:00,
2013-02-16 07:33:00,44.2,38.5,30.06,NW,315,3.5,3.5,80,0.00,CLR,OVC,0.00,0.0,WeatherDisplay:10.37,2013-02-16 15:33:00,
2013-02-16 07:38:00,44.4,39.0,30.06,NW,315,2.4,2.4,81,0.00,CLR,OVC,0.00,0.0,WeatherDisplay:10.37,2013-02-16 15:38:00,
2013-02-16 07:43:00,44.4,39.0,30.06,NW,315,2.3,2.3,81,0.00,CLR,OVC,0.00,0.0,WeatherDisplay:10.37,2013-02-16 15:43:00,
2013-02-16 07:48:00,44.6,39.1,30.07,NW,315,2.3,2.3,81,0.00,CLR,OVC,0.00,0.0,WeatherDisplay:10.37,2013-02-16 15:48:00,
2013-02-16 07:53:00,44.6,39.1,30.07,NW,315,2.3,2.3,81,0.00,CLR,OVC,0.00,0.0,WeatherDisplay:10.37,2013-02-16 15:53:00,
2013-02-16 07:58:00,44.8,39.6,30.07,NW,315,3.5,3.5,82,0.00,CLR,OVC,0.00,0.0,WeatherDisplay:10.37,2013-02-16 15:58:00,
2013-02-16 08:03:00,45.0,39.8,30.07,North,0,2.3,2.3,82,0.00,CLR,OVC,0.00,0.0,WeatherDisplay:10.37,2013-02-16 16:03:00,
2013-02-16 08:08:00,45.3,40.1,30.07,NW,315,3.0,3.0,82,0.00,CLR,OVC,0.00,0.0,WeatherDisplay:10.37,2013-02-16 16:08:00,
2013-02-16 08:13:00,45.5,40.3,30.07,NW,315,3.6,3.6,82,0.00,CLR,OVC,0.00,0.0,WeatherDisplay:10.37,2013-02-16 16:13:00,
2013-02-16 08:18:00,46.0,40.9,30.07,NW,315,3.5,3.5,82,0.00,CLR,OVC,0.00,0.0,WeatherDisplay:10.37,2013-02-16 16:18:00,
2013-02-16 08:23:00,46.4,40.9,30.07,NNW,338,2.3,2.3,81,0.00,CLR,OVC,0.00,0.0,WeatherDisplay:10.37,2013-02-16 16:23:00,
2013-02-16 08:28:00,47.5,41.9,30.06,NNW,338,2.3,2.3,81,0.00,CLR,OVC,0.00,0.0,WeatherDisplay:10.37,2013-02-16 16:28:00,
2013-02-16 08:33:00,48.0,42.1,30.06,NNW,338,2.3,2.3,80,0.00,CLR,OVC,0.00,0.0,WeatherDisplay:10.37,2013-02-16 16:33:00,
2013-02-16 08:38:00,48.9,42.7,30.06,WNW,292,5.8,5.8,79,0.00,CLR,OVC,0.00,0.0,WeatherDisplay:10.37,2013-02-16 16:38:00,
2013-02-16 08:43:00,49.5,42.9,30.06,NW,315,3.5,3.5,78,0.00,CLR,OVC,0.00,0.0,WeatherDisplay:10.37,2013-02-16 16:43:00,
2013-02-16 08:48:00,49.8,42.6,30.07,NW,315,2.3,2.3,76,0.00,CLR,OVC,0.00,0.0,WeatherDisplay:10.37,2013-02-16 16:48:00,
2013-02-16 08:53:00,50.0,42.4,30.07,NNW,338,2.3,2.3,75,0.00,CLR,OVC,0.00,0.0,WeatherDisplay:10.37,2013-02-16 16:53:00,
2013-02-16 08:58:00,50.5,42.6,30.07,NNW,338,3.5,3.5,74,0.00,CLR,OVC,0.00,0.0,WeatherDisplay:10.37,2013-02-16 16:58:00,
2013-02-16 09:03:00,51.1,42.4,30.07,NE,45,4.6,4.6,72,0.00,CLR,OVC,0.00,0.0,WeatherDisplay:10.37,2013-02-16 17:03:00,
2013-02-16 09:08:00,51.8,41.9,30.07,North,0,4.6,4.6,69,0.00,CLR,OVC,0.00,0.0,WeatherDisplay:10.37,2013-02-16 17:08:00,
2013-02-16 09:13:00,52.2,41.9,30.07,NNE,22,4.6,4.6,68,0.00,CLR,OVC,0.00,0.0,WeatherDisplay:10.37,2013-02-16 17:13:00,
2013-02-16 09:18:00,52.7,42.0,30.07,WNW,292,4.6,4.6,67,0.00,CLR,OVC,0.00,0.0,WeatherDisplay:10.37,2013-02-16 17:18:00,
2013-02-16 09:23:00,53.1,41.6,30.07,NNW,338,4.6,4.6,65,0.00,CLR,OVC,0.00,0.0,WeatherDisplay:10.37,2013-02-16 17:23:00,
2013-02-16 09:28:00,53.6,41.7,30.07,NNW,338,4.6,4.6,64,0.00,CLR,OVC,0.00,0.0,WeatherDisplay:10.37,2013-02-16 17:28:00,
2013-02-16 09:33:00,54.1,41.8,30.07,NNW,338,4.6,4.6,63,0.00,CLR,OVC,0.00,0.0,WeatherDisplay:10.37,2013-02-16 17:33:00,
2013-02-16 09:38:00,54.7,41.9,30.07,NNE,22,5.8,5.8,62,0.00,CLR,OVC,0.00,0.0,WeatherDisplay:10.37,2013-02-16 17:38:00,
2013-02-16 09:43:00,54.9,41.7,30.07,NNW,338,2.3,2.3,61,0.00,CLR,OVC,0.00,0.0,WeatherDisplay:10.37,2013-02-16 17:43:00,
2013-02-16 09:48:00,55.2,41.1,30.06,NNW,338,2.3,2.3,59,0.00,CLR,OVC,0.00,0.0,WeatherDisplay:10.37,2013-02-16 17:48:00,
2013-02-16 09:53:00,55.9,41.8,30.06,WNW,292,2.3,2.3,59,0.00,CLR,OVC,0.00,0.0,WeatherDisplay:10.37,2013-02-16 17:53:00,
2013-02-16 09:58:00,56.5,41.9,30.06,North,0,2.0,2.1,58,0.00,CLR,OVC,0.00,0.0,WeatherDisplay:10.37,2013-02-16 17:58:00,
2013-02-16 10:03:00,56.7,42.0,30.06,WNW,292,4.6,4.6,58,0.00,CLR,OVC,0.00,0.0,WeatherDisplay:10.37,2013-02-16 18:03:00,
2013-02-16 10:08:00,57.0,41.9,30.06,NW,315,4.6,4.6,57,0.00,CLR,OVC,0.00,0.0,WeatherDisplay:10.37,2013-02-16 18:08:00,
2013-02-16 10:13:00,57.4,42.3,30.06,WNW,292,3.5,3.5,57,0.00,CLR,OVC,0.00,0.0,WeatherDisplay:10.37,2013-02-16 18:13:00,
2013-02-16 10:18:00,57.7,42.1,30.06,NW,315,3.5,3.5,56,0.00,CLR,OVC,0.00,0.0,WeatherDisplay:10.37,2013-02-16 18:18:00,
2013-02-16 10:23:00,57.9,41.8,30.06,NNW,338,3.5,3.5,55,0.00,CLR,OVC,0.00,0.0,WeatherDisplay:10.37,2013-02-16 18:23:00,
2013-02-16 10:28:00,58.3,41.7,30.06,WNW,292,3.5,3.5,54,0.00,CLR,OVC,0.00,0.0,WeatherDisplay:10.37,2013-02-16 18:28:00,
2013-02-16 10:33:00,58.5,41.4,30.06,NW,315,3.5,3.5,53,0.00,CLR,OVC,0.00,0.0,WeatherDisplay:10.37,2013-02-16 18:33:00,
2013-02-16 10:38:00,58.6,40.6,30.06,NW,315,4.9,4.9,51,0.00,CLR,OVC,0.00,0.0,WeatherDisplay:10.37,2013-02-16 18:38:00,
2013-02-16 10:43:00,58.6,40.6,30.06,NW,315,3.5,3.5,51,0.00,CLR,OVC,0.00,0.0,WeatherDisplay:10.37,2013-02-16 18:43:00,
2013-02-16 10:48:00,58.6,39.5,30.06,NNW,338,5.6,5.6,49,0.00,CLR,OVC,0.00,0.0,WeatherDisplay:10.37,2013-02-16 18:48:00,
2013-02-16 10:53:00,58.8,39.7,30.06,North,0,3.8,3.8,49,0.00,CLR,OVC,0.00,0.0,WeatherDisplay:10.37,2013-02-16 18:53:00,
2013-02-16 10:58:00,59.2,40.0,30.06,WNW,292,3.5,3.5,49,0.00,CLR,OVC,0.00,0.0,WeatherDisplay:10.37,2013-02-16 18:58:00,
2013-02-16 11:03:00,59.4,39.7,30.06,NNE,22,3.5,3.5,48,0.00,CLR,OVC,0.00,0.0,WeatherDisplay:10.37,2013-02-16 19:03:00,
2013-02-16 11:08:00,59.7,39.4,30.05,NW,315,3.5,3.5,47,0.00,CLR,OVC,0.00,0.0,WeatherDisplay:10.37,2013-02-16 19:08:00,
2013-02-16 11:13:00,59.9,39.6,30.05,WNW,292,2.3,2.6,47,0.00,CLR,OVC,0.00,0.0,WeatherDisplay:10.37,2013-02-16 19:13:00,
2013-02-16 11:18:00,60.4,39.5,30.05,North,0,3.5,3.5,46,0.00,CLR,OVC,0.00,0.0,WeatherDisplay:10.37,2013-02-16 19:18:00,
2013-02-16 11:23:00,60.4,39.0,30.05,WSW,248,4.6,4.6,45,0.00,CLR,OVC,0.00,0.0,WeatherDisplay:10.37,2013-02-16 19:23:00,
2013-02-16 11:28:00,60.8,38.1,30.04,NNE,22,2.3,2.3,43,0.00,CLR,OVC,0.00,0.0,WeatherDisplay:10.37,2013-02-16 19:28:00,
2013-02-16 11:33:00,61.2,37.9,30.04,North,0,2.3,2.3,42,0.00,CLR,OVC,0.00,0.0,WeatherDisplay:10.37,2013-02-16 19:33:00,
2013-02-16 11:38:00,61.2,36.6,30.04,NW,315,4.9,4.9,40,0.00,CLR,OVC,0.00,0.0,WeatherDisplay:10.37,2013-02-16 19:38:00,
2013-02-16 11:43:00,61.3,36.8,30.04,NNE,22,4.6,4.6,40,0.00,CLR,OVC,0.00,0.0,WeatherDisplay:10.37,2013-02-16 19:43:00,
2013-02-16 11:48:00,61.5,35.7,30.04,NNW,338,4.6,4.6,38,0.00,CLR,OVC,0.00,0.0,WeatherDisplay:10.37,2013-02-16 19:48:00,
2013-02-16 11:53:00,61.9,36.0,30.04,NNE,22,4.7,4.7,38,0.00,CLR,OVC,0.00,0.0,WeatherDisplay:10.37,2013-02-16 19:53:00,
2013-02-16 11:58:00,62.2,35.6,30.04,NNE,22,0.0,3.2,37,0.00,CLR,OVC,0.00,0.0,WeatherDisplay:10.37,2013-02-16 19:58:00,
2013-02-16 12:03:00,62.2,34.9,30.04,NE,45,4.6,4.6,36,0.00,CLR,OVC,0.00,0.0,WeatherDisplay:10.37,2013-02-16 20:03:00,
2013-02-16 12:08:00,62.6,34.5,30.03,NNE,22,4.9,4.9,35,0.00,CLR,OVC,0.00,0.0,WeatherDisplay:10.37,2013-02-16 20:08:00,
2013-02-16 12:13:00,62.6,33.1,30.03,NNE,22,4.6,4.6,33,0.00,CLR,OVC,0.00,0.0,WeatherDisplay:10.37,2013-02-16 20:13:00,
2013-02-16 12:18:00,63.0,32.6,30.03,East,90,2.3,3.5,32,0.00,CLR,OVC,0.00,0.0,WeatherDisplay:10.37,2013-02-16 20:18:00,
2013-02-16 12:23:00,63.0,31.8,30.03,NNE,22,4.6,4.6,31,0.00,CLR,OVC,0.00,0.0,WeatherDisplay:10.37,2013-02-16 20:23:00,
2013-02-16 12:28:00,63.3,32.1,30.01,NE,45,4.6,4.6,31,0.00,CLR,OVC,0.00,0.0,WeatherDisplay:10.37,2013-02-16 20:28:00,
2013-02-16 12:33:00,63.5,31.5,30.01,NNW,338,5.8,5.8,30,0.00,CLR,OVC,0.00,0.0,WeatherDisplay:10.37,2013-02-16 20:33:00,
2013-02-16 12:38:00,63.9,31.8,30.01,NNE,22,6.9,6.9,30,0.00,CLR,OVC,0.00,0.0,WeatherDisplay:10.37,2013-02-16 20:38:00,
2013-02-16 12:43:00,64.0,31.1,30.01,NE,45,6.9,6.9,29,0.00,CLR,OVC,0.00,0.0,WeatherDisplay:10.37,2013-02-16 20:43:00,
2013-02-16 12:48:00,64.4,31.4,30.01,NNE,22,5.8,5.8,29,0.00,CLR,OVC,0.00,0.0,WeatherDisplay:10.37,2013-02-16 20:48:00,
2013-02-16 12:53:00,64.6,31.6,30.01,ENE,68,5.8,5.8,29,0.00,CLR,OVC,0.00,0.0,WeatherDisplay:10.37,2013-02-16 20:53:00,
2013-02-16 12:58:00,64.8,31.7,30.01,North,0,4.9,4.9,29,0.00,CLR,OVC,0.00,0.0,WeatherDisplay:10.37,2013-02-16 20:58:00,
2013-02-16 13:03:00,64.9,31.9,30.01,NNE,22,3.5,3.5,29,0.00,CLR,OVC,0.00,0.0,WeatherDisplay:10.37,2013-02-16 21:03:00,
2013-02-16 13:08:00,65.3,32.2,30.00,NNE,22,5.8,5.8,29,0.00,CLR,OVC,0.00,0.0,WeatherDisplay:10.37,2013-02-16 21:08:00,
2013-02-16 13:13:00,65.7,33.4,30.00,NNW,338,6.9,6.9,30,0.00,CLR,OVC,0.00,0.0,WeatherDisplay:10.37,2013-02-16 21:13:00,
2013-02-16 13:18:00,66.0,33.7,30.00,NNE,22,2.3,3.3,30,0.00,CLR,OVC,0.00,0.0,WeatherDisplay:10.37,2013-02-16 21:18:00,
2013-02-16 13:23:00,66.4,33.1,30.00,ESE,112,2.3,3.0,29,0.00,CLR,OVC,0.00,0.0,WeatherDisplay:10.37,2013-02-16 21:23:00,
2013-02-16 13:28:00,66.6,33.3,29.99,NW,315,4.6,4.6,29,0.00,CLR,OVC,0.00,0.0,WeatherDisplay:10.37,2013-02-16 21:28:00,
2013-02-16 13:33:00,66.7,34.3,29.99,West,270,2.3,2.3,30,0.00,CLR,OVC,0.00,0.0,WeatherDisplay:10.37,2013-02-16 21:33:00,
2013-02-16 13:38:00,67.1,34.6,29.99,NW,315,3.0,3.0,30,0.00,CLR,OVC,0.00,0.0,WeatherDisplay:10.37,2013-02-16 21:38:00,
2013-02-16 13:43:00,67.1,32.9,29.99,NNE,22,4.6,4.6,28,0.00,CLR,OVC,0.00,0.0,WeatherDisplay:10.37,2013-02-16 21:43:00,
2013-02-16 13:48:00,67.5,33.2,29.97,ENE,68,3.5,3.5,28,0.00,CLR,OVC,0.00,0.0,WeatherDisplay:10.37,2013-02-16 21:48:00,
2013-02-16 13:53:00,67.8,32.6,29.97,NE,45,2.3,2.3,27,0.00,CLR,OVC,0.00,0.0,WeatherDisplay:10.37,2013-02-16 21:53:00,
2013-02-16 13:58:00,68.0,30.8,29.97,NNE,22,4.4,4.4,25,0.00,CLR,OVC,0.00,0.0,WeatherDisplay:10.37,2013-02-16 21:58:00,
2013-02-16 14:03:00,68.2,31.0,29.97,North,0,2.6,2.6,25,0.00,CLR,OVC,0.00,0.0,WeatherDisplay:10.37,2013-02-16 22:03:00,
2013-02-16 14:08:00,68.0,29.8,29.97,NNE,22,4.6,4.6,24,0.00,CLR,OVC,0.00,0.0,WeatherDisplay:10.37,2013-02-16 22:08:00,
2013-02-16 14:13:00,67.8,30.7,29.97,SE,135,4.6,4.6,25,0.00,CLR,OVC,0.00,0.0,WeatherDisplay:10.37,2013-02-16 22:13:00,
2013-02-16 14:18:00,67.8,29.7,29.97,NW,315,4.6,4.6,24,0.00,CLR,OVC,0.00,0.0,WeatherDisplay:10.37,2013-02-16 22:18:00,
2013-02-16 14:23:00,67.8,30.7,29.97,NNW,338,2.3,2.3,25,0.00,CLR,OVC,0.00,0.0,WeatherDisplay:10.37,2013-02-16 22:23:00,
2013-02-16 14:28:00,67.8,30.7,29.96,North,0,2.8,2.8,25,0.00,CLR,OVC,0.00,0.0,WeatherDisplay:10.37,2013-02-16 22:28:00,
2013-02-16 14:33:00,67.8,30.7,29.96,South,180,2.3,2.3,25,0.00,CLR,OVC,0.00,0.0,WeatherDisplay:10.37,2013-02-16 22:33:00,
2013-02-16 14:38:00,68.0,29.8,29.96,NNE,22,2.3,2.3,24,0.00,CLR,OVC,0.00,0.0,WeatherDisplay:10.37,2013-02-16 22:38:00,
2013-02-16 14:43:00,68.2,30.0,29.96,NE,45,2.6,2.6,24,0.00,CLR,OVC,0.00,0.0,WeatherDisplay:10.37,2013-02-16 22:43:00,
2013-02-16 14:48:00,68.5,29.2,29.94,NW,315,1.2,1.4,23,0.00,CLR,OVC,0.00,0.0,WeatherDisplay:10.37,2013-02-16 22:48:00,
2013-02-16 14:53:00,68.5,29.2,29.94,South,180,2.3,2.3,23,0.00,CLR,OVC,0.00,0.0,WeatherDisplay:10.37,2013-02-16 22:53:00,
2013-02-16 14:58:00,68.5,29.2,29.94,North,0,2.3,2.3,23,0.00,CLR,OVC,0.00,0.0,WeatherDisplay:10.37,2013-02-16 22:58:00,
2013-02-16 15:03:00,68.7,29.4,29.94,East,90,2.3,2.3,23,0.00,CLR,OVC,0.00,0.0,WeatherDisplay:10.37,2013-02-16 23:03:00,
2013-02-16 15:08:00,68.7,29.4,29.94,NW,315,2.3,2.3,23,0.00,CLR,OVC,0.00,0.0,WeatherDisplay:10.37,2013-02-16 23:08:00,
2013-02-16 15:13:00,68.7,29.4,29.94,East,90,0.0,1.0,23,0.00,CLR,OVC,0.00,0.0,WeatherDisplay:10.37,2013-02-16 23:13:00,
2013-02-16 15:18:00,68.9,29.5,29.94,East,90,1.7,1.7,23,0.00,CLR,OVC,0.00,0.0,WeatherDisplay:10.37,2013-02-16 23:18:00,
2013-02-16 15:23:00,68.9,29.5,29.94,ESE,112,1.2,1.2,23,0.00,CLR,OVC,0.00,0.0,WeatherDisplay:10.37,2013-02-16 23:23:00,
2013-02-16 15:28:00,68.9,29.5,29.93,South,180,2.3,2.3,23,0.00,CLR,OVC,0.00,0.0,WeatherDisplay:10.37,2013-02-16 23:28:00,
2013-02-16 15:33:00,68.9,29.5,29.93,ESE,112,0.0,0.6,23,0.00,CLR,OVC,0.00,0.0,WeatherDisplay:10.37,2013-02-16 23:33:00,
2013-02-16 15:38:00,68.9,28.5,29.93,SE,135,1.5,1.5,22,0.00,CLR,OVC,0.00,0.0,WeatherDisplay:10.37,2013-02-16 23:38:00,
2013-02-16 15:43:00,68.7,28.3,29.93,WSW,248,0.0,0.6,22,0.00,CLR,OVC,0.00,0.0,WeatherDisplay:10.37,2013-02-16 23:43:00,
2013-02-16 15:48:00,68.7,28.3,29.92,SSE,158,2.3,2.3,22,0.00,CLR,OVC,0.00,0.0,WeatherDisplay:10.37,2013-02-16 23:48:00,
2013-02-16 15:53:00,68.5,28.2,29.92,NE,45,1.2,1.2,22,0.00,CLR,OVC,0.00,0.0,WeatherDisplay:10.37,2013-02-16 23:53:00,
2013-02-16 15:58:00,68.5,28.2,29.92,ESE,112,1.3,1.3,22,0.00,CLR,OVC,0.00,0.0,WeatherDisplay:10.37,2013-02-16 23:58:00,
2013-02-16 16:03:00,68.4,26.9,29.92,SE,135,1.4,1.4,21,0.00,CLR,OVC,0.00,0.0,WeatherDisplay:10.37,2013-02-17 00:03:00,
2013-02-16 16:08:00,68.4,26.9,29.92,ENE,68,1.4,1.4,21,0.00,CLR,OVC,0.00,0.0,WeatherDisplay:10.37,2013-02-17 00:08:00,
2013-02-16 16:13:00,68.4,26.9,29.92,NE,45,1.2,1.2,21,0.00,CLR,OVC,0.00,0.0,WeatherDisplay:10.37,2013-02-17 00:13:00,
2013-02-16 16:18:00,68.2,26.7,29.92,NW,315,0.0,0.5,21,0.00,CLR,OVC,0.00,0.0,WeatherDisplay:10.37,2013-02-17 00:18:00,
2013-02-16 16:23:00,68.0,26.6,29.92,NE,45,1.2,1.2,21,0.00,CLR,OVC,0.00,0.0,WeatherDisplay:10.37,2013-02-17 00:23:00,
2013-02-16 16:28:00,67.8,27.6,29.91,West,270,1.3,1.3,22,0.00,CLR,OVC,0.00,0.0,WeatherDisplay:10.37,2013-02-17 00:28:00,
2013-02-16 16:33:00,67.8,27.6,29.91,East,90,2.3,2.3,22,0.00,CLR,OVC,0.00,0.0,WeatherDisplay:10.37,2013-02-17 00:33:00,
2013-02-16 16:38:00,67.8,27.6,29.91,ESE,112,1.2,1.2,22,0.00,CLR,OVC,0.00,0.0,WeatherDisplay:10.37,2013-02-17 00:38:00,
2013-02-16 16:43:00,67.6,27.4,29.91,SE,135,1.2,1.2,22,0.00,CLR,OVC,0.00,0.0,WeatherDisplay:10.37,2013-02-17 00:43:00,
2013-02-16 16:48:00,67.3,28.2,29.90,SW,225,2.3,2.3,23,0.00,CLR,OVC,0.00,0.0,WeatherDisplay:10.37,2013-02-17 00:48:00,
2013-02-16 16:53:00,67.1,28.0,29.90,SW,225,2.3,2.3,23,0.00,CLR,OVC,0.00,0.0,WeatherDisplay:10.37,2013-02-17 00:53:00,
2013-02-16 16:58:00,67.1,29.1,29.90,West,270,1.2,2.0,24,0.00,CLR,OVC,0.00,0.0,WeatherDisplay:10.37,2013-02-17 00:58:00,
2013-02-16 17:09:00,66.4,29.5,29.91,West,270,2.3,2.3,25,0.00,CLR,OVC,0.00,0.0,WeatherDisplay:10.37,2013-02-17 01:09:00,
2013-02-16 17:14:00,66.2,29.3,29.91,WSW,248,2.3,2.3,25,0.00,CLR,OVC,0.00,0.0,WeatherDisplay:10.37,2013-02-17 01:14:00,
2013-02-16 17:19:00,66.0,30.1,29.91,WSW,248,2.3,2.3,26,0.00,CLR,OVC,0.00,0.0,WeatherDisplay:10.37,2013-02-17 01:19:00,
2013-02-16 17:24:00,65.7,30.7,29.91,WSW,248,2.3,2.3,27,0.00,CLR,OVC,0.00,0.0,WeatherDisplay:10.37,2013-02-17 01:24:00,
2013-02-16 17:29:00,65.3,32.2,29.91,WSW,248,0.0,1.2,29,0.00,CLR,OVC,0.00,0.0,WeatherDisplay:10.37,2013-02-17 01:29:00,
2013-02-16 17:34:00,65.1,32.9,29.91,WSW,248,1.2,1.2,30,0.00,CLR,OVC,0.00,0.0,WeatherDisplay:10.37,2013-02-17 01:34:00,
2013-02-16 17:39:00,64.8,32.6,29.91,SW,225,0.0,0.3,30,0.00,CLR,OVC,0.00,0.0,WeatherDisplay:10.37,2013-02-17 01:39:00,
2013-02-16 17:44:00,64.4,33.1,29.91,SW,225,0.0,0.2,31,0.00,CLR,OVC,0.00,0.0,WeatherDisplay:10.37,2013-02-17 01:44:00,
2013-02-16 17:49:00,64.0,33.6,29.89,SSE,158,0.0,0.0,32,0.00,CLR,OVC,0.00,0.0,WeatherDisplay:10.37,2013-02-17 01:49:00,
2013-02-16 17:54:00,63.9,34.2,29.89,WSW,248,0.0,0.0,33,0.00,CLR,OVC,0.00,0.0,WeatherDisplay:10.37,2013-02-17 01:54:00,
2013-02-16 17:59:00,63.3,34.4,29.89,SE,135,0.0,0.0,34,0.00,CLR,OVC,0.00,0.0,WeatherDisplay:10.37,2013-02-17 01:59:00,